レモン-ヨン-パンスターズ彗星

C/2015 VL62 ( Lemmon-Yeung-PanSTARRS )

English version
Home page
Updated on October 9, 2017

---------------------------------------------------------------------

・ プロフィール

発見日 2015年11月2日、12月18日、2016年1月23日
発見光度 20.7等、19.1等、19.8等
発見者 R. G. Matheny and E. J. Christensen (Mount Lemmon), W. K. Y. Yeung (near Mayhill, NM, USA), Pan-STARRS 1 telescope (Haleakala)

・ 写真集

・ 軌道要素

Epoch 2017 Sept. 4.0 TT = JDT 2458000.5
T 2017 Aug. 28.59900 TT                                 MPCW
q   2.7203038            (2000.0)            P               Q
z  -0.0006681      Peri.  128.36474     +0.80634779     -0.53708747
 +/-0.0000005      Node    94.55150     -0.58984694     -0.69953861
e   1.0018175      Incl.  165.61400     -0.04340308     -0.47136269
From 1086 observations 2015 Nov. 2-2017 July 6, mean residual 0".4.

・ 星図

・ 光度変化

        m1 = 9.5 + 5 logΔ + 7.0 log r

---------------------------------------------------------------------

軌道要素はM.P.E.C. 2017-N58に掲載されたものです。
星図はステラナビゲータ Ver.10 (アストロアーツ) で作成したものです。
光度グラフはComet for Windowsで作成したものです。

---------------------------------------------------------------------

Copyright(C) Seiichi Yoshida (comet@aerith.net). All rights reserved.